Temp
17 17 17 16 18 19 22 21 22 21 21 22 22 22 21 20 21 21 16 17 17 17 17 18 18 19 19 19 19 18 18 18 18 18 18 18 18 18 18 18 18 18 17 18 18 18 18 17 17
18 17 16 17 18 22 23 22 20 21 22 22 21 21 21 19 16 16 16 17 17 16 16 18 18 19 19 18 18 18 18 17 17 18 18 18 18 18 17 18 18 18 18 17 17 17 17 17 17
17 17 17 19 20 22 20 22 23 23 22 22 20 19 19 17 16 16 17 17 17 16 16 18 18 19 19 18 18 18 18 18 18 18 18 17 17 17 17 17 17 17 17 17 17 17 17 17 17
17 17 17 19 21 21 19 23 23 23 22 21 20 19 17 16 15 16 16 17 16 16 16 18 18 19 18 18 18 18 17 18 18 18 18 18 17 17 17 17 17 17 17 18 17 17 17 17 17
16 17 20 20 21 21 23 22 21 23 21 21 19 17 16 15 16 16 16 16 16 16 16 18 18 19 18 18 18 18 18 18 18 18 18 18 18 18 17 17 17 17 18 18 18 17 17 17 17
17 18 21 20 22 23 24 21 23 23 20 19 19 18 16 16 16 15 15 16 16 16 16 18 18 18 18 18 18 18 18 18 18 17 17 17 17 18 18 17 17 17 17 17 18 17 17 17 17
19 20 21 22 22 23 23 20 23 22 20 20 19 19 16 15 15 15 16 15 16 16 16 16 17 18 18 18 18 18 18 18 18 18 18 17 18 18 18 17 17 17 17 17 17 17 17 17 17
18 21 21 22 23 23 23 20 22 22 21 19 19 19 16 15 15 15 15 16 16 17 16 16 17 17 19 18 18 18 18 18 18 18 17 18 18 18 18 17 17 17 17 17 17 17 17 17 17
19 21 22 24 23 23 22 22 21 21 19 20 19 19 18 15 15 15 15 15 16 16 16 16 17 19 19 19 18 18 18 18 18 18 18 18 18 18 18 17 17 17 17 17 17 18 18 18 18
19 21 23 24 25 23 22 23 22 21 20 19 18 17 16 15 16 16 16 16 16 16 16 16 18 19 19 19 18 18 17 17 18 18 18 18 18 18 18 17 17 18 18 18 18 18 18 18 17
21 21 23 24 24 23 24 23 23 22 22 20 18 16 15 16 16 16 17 17 17 16 16 17 19 19 19 19 18 18 18 18 19 19 18 18 18 18 18 18 18 18 18 18 18 18 18 18 18
21 21 22 23 24 23 24 24 23 23 23 21 18 17 16 17 16 17 17 17 16 16 18 18 19 19 19 19 19 19 19 19 19 19 18 18 18 18 18 18 18 18 18 18 18 18 18 18 18
21 22 22 23 24 24 24 24 24 23 21 19 18 17 17 17 16 17 17 16 16 17 18 19 19 19 19 19 19 19 19 18 18 18 18 18 18 18 18 18 18 18 18 18 18 19 19 19 19
22 22 23 23 24 24 25 25 24 21 20 18 17 17 17 17 17 17 16 16 16 19 19 19 19 19 19 19 19 19 19 19 19 19 18 18 19 18 18 18 18 18 18 18 18 19 19 19 19
22 22 24 24 23 24 25 25 25 20 19 18 17 17 17 17 17 17 17 16 19 20 20 20 20 20 19 19 19 19 19 18 19 19 18 18 18 19 19 18 18 18 18 18 18 18 19 19 19
23 23 23 26 25 25 26 26 24 20 19 19 18 18 17 17 17 17 17 16 18 20 20 20 20 20 20 20 19 19 19 19 19 19 18 18 18 19 19 18 18 18 18 18 18 18 18 19 19
22 25 23 24 26 25 26 26 23 20 20 19 18 18 18 17 17 17 17 16 18 20 20 20 20 20 20 20 19 19 19 19 19 19 19 18 18 19 18 18 18 18 18 19 18 18 18 19 19
23 23 24 25 26 26 26 26 22 20 20 20 19 18 18 18 17 17 17 17 17 19 20 20 20 20 20 20 19 19 19 19 19 19 19 19 18 19 18 19 19 18 18 18 19 19 19 19 19
23 23 25 26 27 27 27 26 23 21 20 20 19 19 19 18 18 18 17 17 17 19 19 20 20 21 20 20 20 19 19 19 19 20 20 19 19 19 19 18 19 19 19 18 18 19 19 19 19
22 21 24 26 26 26 26 26 25 22 22 21 20 19 19 19 18 18 18 18 17 18 19 20 20 21 20 20 20 20 20 20 20 20 20 20 19 19 19 19 19 19 19 19 19 19 19 19 19
21 22 22 24 26 26 26 26 25 23 22 21 20 20 20 19 19 18 18 18 18 17 19 20 20 20 20 20 20 19 19 19 19 19 20 20 20 19 19 19 19 19 18 18 18 19 19 19 19
21 22 22 22 23 25 26 26 26 26 22 22 21 20 20 20 19 19 19 18 18 18 19 19 20 20 20 20 20 20 20 20 20 20 20 20 20 19 19 19 19 19 18 18 19 19 19 19 19
21 22 22 22 22 23 24 25 27 26 24 23 23 22 21 20 20 20 19 19 19 18 19 20 20 20 20 20 20 20 20 20 20 20 19 19 20 20 20 19 19 19 19 18 19 19 19 19 19
22 22 22 23 23 21 24 25 26 26 26 25 24 23 22 21 20 20 19 19 19 18 18 20 20 20 20 20 20 20 20 20 20 20 19 19 19 20 20 19 19 19 19 19 19 19 19 19 19
21 21 21 20 21 22 25 24 25 28 28 28 26 23 23 22 21 20 19 19 19 19 18 20 20 20 20 20 20 20 20 20 20 20 20 19 19 20 20 20 19 19 19 19 19 19 19 19 19
21 22 22 20 22 23 24 23 25 27 28 26 27 26 24 22 22 21 20 19 19 20 20 21 21 20 20 20 20 21 21 20 21 20 20 20 20 20 20 20 20 20 19 19 19 19 19 19 19
21 21 23 22 21 23 25 24 26 27 28 29 28 26 25 23 22 22 21 20 20 20 22 22 21 21 21 21 21 21 21 21 21 21 21 20 20 20 21 20 20 20 20 19 19 19 19 19 19
21 23 21 21 20 21 24 24 25 26 27 28 28 27 26 24 23 23 22 21 21 21 22 23 23 23 22 21 21 22 22 22 21 21 22 21 21 20 21 21 21 20 20 20 19 19 19 19 19
20 20 22 23 22 22 23 24 27 27 28 28 28 27 27 26 24 23 23 22 22 22 22 24 23 23 23 22 22 22 22 22 22 22 22 22 21 21 21 21 21 20 20 20 20 20 19 19 19
15 18 22 21 21 22 23 24 27 28 29 29 30 28 27 26 25 24 24 23 22 21 22 23 24 24 24 23 23 23 23 23 22 22 22 22 22 21 21 21 21 21 21 20 20 20 20 20 20
Height
1517 1518 1520 1522 1524 1521 1516 1516 1512 1515 1516 1516 1519 1521 1525 1527 1528 1538 1541 1546 1550 1553 1555 1558 1560 1562 1564 1566 1567 1568 1570 1571 1572 1573 1574 1575 1576 1577 1578 1578 1579 1580 1580 1580 1579 1579 1579 1579 1580
1517 1519 1521 1521 1524 1518 1516 1512 1515 1513 1514 1517 1521 1524 1526 1530 1531 1533 1538 1545 1551 1554 1558 1560 1562 1563 1565 1567 1569 1570 1571 1573 1574 1575 1576 1577 1578 1579 1580 1581 1581 1582 1582 1582 1581 1581 1581 1582 1582
1518 1520 1521 1519 1518 1517 1521 1510 1507 1512 1516 1518 1522 1525 1528 1532 1532 1535 1540 1545 1551 1555 1559 1561 1563 1565 1567 1569 1570 1572 1573 1575 1576 1577 1578 1579 1579 1580 1582 1583 1584 1584 1584 1584 1584 1584 1584 1585 1585
1518 1521 1522 1521 1518 1513 1514 1510 1509 1512 1517 1520 1521 1526 1531 1531 1534 1536 1541 1547 1553 1557 1561 1563 1565 1567 1569 1571 1572 1574 1576 1577 1578 1580 1580 1581 1581 1583 1585 1585 1586 1586 1585 1585 1586 1587 1587 1587 1587
1518 1518 1516 1517 1515 1511 1508 1509 1512 1512 1516 1520 1522 1529 1531 1532 1534 1538 1542 1549 1554 1559 1562 1564 1568 1570 1572 1573 1575 1576 1578 1579 1581 1582 1582 1583 1584 1585 1586 1587 1587 1587 1587 1587 1588 1589 1590 1590 1589
1516 1517 1516 1519 1510 1505 1505 1507 1507 1511 1516 1520 1523 1528 1533 1534 1536 1540 1545 1552 1555 1560 1564 1566 1569 1572 1574 1575 1577 1578 1580 1582 1583 1584 1585 1586 1587 1587 1588 1589 1589 1589 1590 1589 1590 1592 1592 1592 1592
1515 1514 1513 1509 1508 1505 1504 1507 1508 1510 1515 1519 1521 1527 1533 1535 1538 1542 1547 1552 1557 1561 1564 1567 1571 1573 1575 1577 1578 1580 1582 1583 1585 1586 1587 1588 1589 1590 1591 1591 1591 1592 1591 1591 1592 1594 1595 1595 1595
1515 1513 1511 1506 1504 1503 1503 1507 1509 1510 1515 1519 1521 1523 1531 1532 1538 1543 1548 1553 1557 1561 1565 1568 1572 1574 1576 1578 1580 1582 1583 1585 1587 1588 1589 1590 1591 1592 1593 1594 1594 1594 1594 1594 1595 1596 1596 1597 1598
1514 1513 1509 1502 1502 1501 1504 1505 1509 1511 1514 1518 1521 1521 1524 1530 1539 1543 1548 1553 1557 1562 1566 1569 1572 1574 1577 1579 1581 1583 1585 1587 1588 1590 1592 1593 1593 1594 1595 1596 1597 1597 1597 1598 1598 1598 1599 1600 1601
1513 1511 1502 1497 1497 1499 1501 1503 1506 1510 1514 1518 1520 1522 1525 1532 1537 1542 1547 1551 1556 1561 1565 1569 1572 1575 1578 1580 1582 1584 1586 1588 1590 1591 1593 1594 1595 1596 1597 1598 1599 1599 1600 1600 1600 1601 1602 1603 1604
1507 1504 1499 1497 1498 1500 1500 1502 1504 1507 1512 1513 1515 1520 1526 1532 1538 1542 1547 1551 1555 1561 1565 1568 1572 1575 1578 1580 1582 1585 1587 1589 1591 1592 1594 1595 1596 1597 1598 1599 1600 1601 1602 1602 1603 1604 1605 1605 1606
1505 1500 1500 1498 1497 1500 1500 1501 1503 1505 1506 1508 1511 1515 1523 1531 1536 1540 1546 1550 1555 1560 1564 1568 1572 1575 1577 1580 1583 1585 1588 1590 1592 1593 1595 1596 1598 1598 1599 1600 1601 1603 1604 1604 1605 1606 1606 1607 1607
1502 1500 1498 1498 1498 1499 1500 1500 1501 1504 1506 1507 1513 1518 1526 1533 1538 1543 1548 1551 1555 1558 1563 1567 1571 1574 1577 1580 1583 1586 1588 1590 1592 1593 1596 1597 1598 1599 1600 1601 1603 1603 1605 1606 1607 1607 1608 1608 1609
1499 1499 1497 1498 1497 1498 1497 1498 1501 1505 1506 1508 1513 1518 1525 1532 1536 1542 1546 1549 1552 1557 1562 1567 1571 1574 1577 1580 1583 1586 1589 1591 1592 1594 1596 1598 1599 1600 1601 1602 1604 1604 1606 1607 1608 1608 1609 1610 1610
1498 1498 1495 1492 1496 1497 1495 1498 1498 1502 1506 1509 1516 1520 1525 1532 1537 1540 1544 1548 1550 1556 1562 1566 1570 1573 1577 1580 1583 1586 1589 1591 1593 1594 1596 1598 1599 1601 1602 1603 1604 1605 1606 1607 1608 1609 1610 1611 1611
1495 1499 1498 1486 1491 1492 1493 1496 1498 1503 1506 1511 1516 1521 1525 1530 1535 1540 1544 1548 1551 1556 1560 1565 1569 1573 1576 1579 1583 1586 1589 1592 1594 1595 1597 1598 1600 1601 1603 1603 1604 1605 1607 1607 1608 1609 1610 1611 1612
1494 1490 1496 1490 1486 1489 1490 1492 1496 1503 1506 1510 1514 1518 1521 1528 1534 1539 1543 1547 1550 1554 1559 1564 1568 1571 1575 1579 1582 1586 1589 1592 1594 1595 1597 1599 1600 1601 1602 1603 1604 1605 1607 1608 1609 1610 1611 1612 1613
1489 1492 1488 1486 1481 1484 1487 1489 1496 1501 1503 1508 1512 1515 1520 1524 1529 1535 1541 1546 1549 1553 1558 1563 1566 1570 1574 1578 1581 1585 1588 1590 1593 1595 1597 1598 1600 1601 1602 1603 1605 1606 1606 1608 1609 1610 1611 1612 1613
1488 1489 1483 1478 1478 1480 1480 1485 1493 1499 1502 1505 1510 1513 1517 1520 1526 1534 1539 1544 1548 1551 1555 1559 1563 1568 1572 1575 1578 1582 1585 1589 1592 1594 1597 1598 1600 1601 1602 1603 1604 1605 1606 1608 1609 1610 1611 1612 1613
1492 1494 1487 1477 1479 1481 1481 1481 1485 1492 1492 1494 1499 1506 1510 1517 1522 1528 1534 1539 1543 1547 1551 1556 1560 1565 1569 1573 1577 1579 1584 1588 1591 1594 1596 1598 1600 1601 1602 1603 1604 1605 1606 1606 1608 1609 1610 1611 1613
1492 1493 1493 1487 1479 1478 1481 1481 1481 1485 1491 1496 1500 1504 1510 1513 1514 1520 1526 1532 1538 1541 1545 1551 1556 1561 1566 1570 1574 1578 1582 1585 1589 1592 1595 1597 1599 1601 1602 1603 1603 1604 1605 1606 1607 1608 1610 1611 1612
1492 1488 1492 1493 1493 1489 1477 1487 1475 1475 1483 1488 1492 1496 1501 1506 1511 1516 1520 1525 1530 1534 1541 1547 1553 1557 1562 1567 1571 1574 1578 1581 1585 1589 1593 1596 1598 1600 1601 1602 1603 1604 1604 1606 1607 1608 1609 1610 1612
1483 1485 1491 1493 1496 1494 1483 1486 1464 1467 1477 1478 1482 1487 1492 1497 1502 1506 1510 1515 1523 1530 1534 1541 1548 1553 1558 1562 1566 1571 1575 1579 1583 1586 1590 1593 1596 1598 1599 1601 1602 1602 1603 1604 1606 1607 1609 1610 1612
1479 1483 1487 1487 1492 1499 1480 1481 1465 1464 1464 1465 1473 1478 1483 1489 1494 1499 1505 1512 1517 1524 1528 1534 1541 1547 1552 1557 1562 1566 1571 1575 1578 1582 1586 1589 1592 1595 1597 1599 1600 1601 1602 1603 1604 1606 1608 1609 1611
1478 1482 1494 1503 1496 1482 1465 1476 1464 1451 1452 1455 1462 1467 1471 1478 1485 1490 1497 1501 1507 1513 1519 1526 1533 1539 1546 1552 1557 1561 1566 1571 1574 1578 1582 1585 1588 1591 1593 1596 1598 1600 1601 1602 1602 1604 1606 1607 1609
1469 1471 1473 1492 1479 1472 1465 1463 1452 1450 1449 1454 1456 1458 1466 1472 1477 1482 1487 1492 1496 1502 1509 1516 1523 1532 1539 1545 1550 1556 1561 1565 1569 1573 1577 1580 1584 1586 1590 1593 1595 1597 1599 1600 1600 1602 1604 1605 1606
1462 1465 1458 1469 1469 1466 1447 1453 1444 1442 1441 1445 1450 1455 1458 1462 1467 1471 1478 1484 1489 1496 1500 1507 1515 1523 1531 1538 1544 1549 1555 1559 1563 1567 1572 1576 1579 1582 1586 1589 1591 1593 1595 1597 1598 1599 1601 1602 1604
1451 1451 1471 1467 1479 1472 1447 1447 1440 1436 1438 1438 1441 1447 1450 1454 1459 1465 1469 1473 1480 1487 1495 1502 1508 1515 1522 1530 1537 1543 1548 1553 1558 1562 1566 1570 1574 1578 1581 1584 1587 1589 1591 1593 1595 1596 1598 1599 1601
1454 1453 1450 1449 1451 1456 1458 1442 1422 1427 1428 1431 1435 1438 1442 1445 1449 1453 1458 1463 1468 1478 1486 1493 1501 1508 1515 1522 1529 1536 1541 1546 1551 1556 1560 1565 1570 1573 1576 1579 1582 1585 1587 1589 1591 1592 1594 1595 1597
1461 1451 1440 1449 1453 1445 1444 1437 1417 1418 1420 1423 1426 1430 1435 1437 1439 1444 1449 1457 1465 1468 1475 1483 1491 1499 1506 1514 1521 1527 1534 1539 1544 1549 1554 1559 1563 1568 1571 1574 1577 1580 1583 1585 1586 1588 1590 1592 1593
Wind_Speed
13 12 11 6 3 3 0 1 1 6 5 5 16 5 6 6 2 3 24 25 30 28 26 24 22 21 19 18 17 16 16 15 14 13 13 12 11 10 9 8 8 9 8 8 9 11 11 12 13
14 14 9 2 1 2 3 4 7 8 4 18 10 10 5 4 5 15 31 30 31 26 22 24 20 19 18 19 16 16 15 15 14 13 12 12 12 11 10 10 9 10 8 8 10 12 13 14 14
13 10 2 1 1 1 1 3 5 13 14 16 5 8 3 4 6 32 27 35 32 25 22 24 20 18 18 17 15 15 15 15 14 14 13 13 13 12 11 11 10 9 7 8 10 11 12 13 13
11 5 2 2 4 2 2 4 10 17 13 8 11 7 5 2 21 23 35 35 29 25 22 24 21 19 17 15 16 17 15 15 15 14 14 13 13 12 11 11 9 9 8 10 10 11 13 12 13
12 2 2 2 2 2 4 2 5 11 9 10 5 5 6 13 19 31 35 31 28 24 21 23 20 19 18 16 17 17 15 15 15 14 14 16 15 14 13 12 11 10 9 9 11 12 12 12 11
4 2 2 2 3 1 2 4 7 13 11 12 9 10 5 13 25 32 31 29 27 24 22 22 20 18 19 15 17 16 15 15 16 16 17 15 15 14 14 13 11 10 9 8 11 12 11 11 12
2 2 1 3 2 3 3 5 13 13 14 8 18 7 10 20 29 30 30 28 26 23 22 22 19 19 18 16 17 16 16 16 16 16 16 15 16 15 14 13 14 13 11 10 12 13 12 12 12
3 2 2 4 3 3 5 6 11 10 6 17 14 7 10 27 32 30 29 27 27 25 21 22 19 18 18 16 16 16 15 15 16 15 15 14 15 14 13 12 12 14 13 12 14 13 12 13 12
4 2 4 3 3 1 9 6 8 10 18 6 11 10 21 33 31 31 30 27 26 24 22 21 19 19 17 17 17 15 15 15 15 14 13 13 12 12 11 11 12 13 14 14 14 14 13 12 13
5 3 3 2 1 3 11 9 11 8 16 6 8 13 35 36 33 34 32 30 28 25 23 22 21 19 17 17 17 16 15 14 15 14 13 12 11 11 10 10 11 12 12 14 13 13 13 12 10
7 4 2 2 1 10 9 9 6 15 9 12 23 28 36 37 34 34 32 30 30 25 25 24 23 20 17 17 18 16 16 16 15 14 12 10 10 9 8 9 10 9 11 11 9 8 9 9 8
6 11 12 4 5 7 4 7 7 12 2 13 24 35 41 39 36 35 33 30 28 26 28 26 24 21 18 18 17 16 17 16 14 13 10 10 9 8 8 8 7 8 9 7 6 5 5 6 6
15 6 6 10 5 4 3 5 4 10 5 15 25 36 38 36 34 31 29 28 27 29 29 28 25 22 20 19 18 18 16 14 12 11 11 9 9 9 9 8 7 6 8 8 7 8 7 7 7
5 19 13 4 5 6 7 2 7 4 13 22 30 36 38 36 35 32 31 30 31 32 30 29 26 23 21 20 18 17 15 13 13 12 12 11 11 8 7 7 7 6 6 7 7 8 8 6 8
12 4 6 11 9 6 7 7 10 13 18 26 30 34 37 34 33 34 32 31 35 33 31 30 27 25 22 20 19 19 15 12 13 11 11 11 9 9 7 7 7 7 5 5 6 7 6 4 6
6 9 5 3 13 6 9 3 6 19 24 26 29 33 35 33 35 31 30 30 32 32 32 29 28 26 24 22 21 19 16 14 13 11 9 9 9 8 7 6 5 7 6 3 6 6 6 4 4
5 10 15 5 9 7 13 2 11 18 22 25 28 33 34 33 33 31 30 30 33 34 32 31 29 27 25 23 22 21 18 15 12 10 9 7 7 8 7 6 6 6 6 5 5 6 8 6 7
11 14 10 15 10 12 11 8 11 18 21 23 26 30 33 34 36 32 31 29 31 35 33 31 30 27 26 25 24 23 20 16 14 13 11 8 7 8 8 6 7 7 6 6 6 4 4 7 4
9 7 16 11 9 10 14 11 12 18 19 21 25 29 32 35 34 30 29 30 30 34 35 33 32 30 28 28 28 26 23 17 15 13 11 9 9 9 8 6 7 7 8 5 3 5 6 7 6
17 6 12 14 3 10 8 15 13 19 24 30 33 32 34 32 34 33 32 32 32 35 37 35 34 33 31 31 30 29 23 19 16 14 13 12 10 8 6 6 5 9 6 4 6 5 6 5 8
18 19 8 7 6 10 7 15 13 15 17 19 23 27 27 33 38 38 36 35 33 35 40 39 36 34 34 34 31 29 25 21 19 16 13 13 12 9 7 6 5 6 5 5 6 5 7 5 6
19 17 17 10 5 12 13 12 13 15 19 20 27 30 32 35 36 36 38 37 37 37 40 41 39 35 36 34 35 32 30 27 23 19 15 12 10 11 10 8 6 6 7 5 4 4 5 5 7
14 11 16 19 13 10 11 9 17 11 17 21 27 32 34 36 38 40 42 42 40 35 40 42 40 36 36 37 35 33 31 27 24 21 18 17 15 11 10 10 8 5 7 7 5 5 7 5 6
10 4 12 15 14 16 20 13 15 13 19 20 25 31 34 35 37 37 37 36 39 36 37 43 42 40 38 38 37 35 33 29 26 24 22 22 20 18 15 12 11 9 7 7 8 7 7 9 7
20 14 7 8 11 19 18 16 17 14 15 17 22 32 36 36 37 37 36 39 41 42 41 46 44 43 43 42 40 38 35 32 30 27 24 25 25 24 21 17 14 12 10 10 9 10 10 8 10
20 20 8 13 13 16 17 13 14 26 23 13 20 26 26 31 34 36 38 41 46 48 49 46 47 44 45 45 44 41 38 35 33 32 29 25 26 27 25 22 19 17 14 11 11 11 12 11 10
15 22 21 9 4 10 14 21 13 14 20 25 22 18 24 30 34 37 38 39 43 47 48 47 46 46 46 46 45 44 41 38 35 33 30 27 24 22 22 23 21 19 17 14 12 12 12 12 12
16 16 17 13 17 12 8 21 15 21 16 17 19 22 23 27 30 33 37 41 43 45 47 45 44 43 46 47 47 45 43 38 35 32 31 31 24 21 20 21 21 20 20 18 17 16 14 14 14
13 12 14 16 16 14 12 10 16 19 20 17 18 28 27 27 31 34 37 41 46 44 48 48 46 44 45 46 47 45 44 42 38 35 31 31 28 24 22 22 23 23 22 21 21 19 18 17 17
6 10 23 12 20 19 13 14 4 16 20 25 26 24 28 29 31 34 35 35 37 45 48 50 51 49 46 46 46 46 43 41 40 37 34 31 30 27 24 24 26 25 24 24 23 22 20 20 19
Wind_Direction
155 157 155 163 221 234 340 226 109 153 164 156 148 148 146 55 50 83 148 154 153 145 141 144 141 137 135 133 132 129 131 130 128 129 134 137 134 133 139 136 129 115 103 80 85 86 98 105 99
157 154 164 246 274 182 95 126 248 158 126 139 106 113 92 94 100 141 150 154 154 145 143 145 140 137 133 127 123 125 126 128 126 127 125 127 133 139 135 130 118 113 108 88 95 92 96 104 110
152 152 259 261 263 181 110 42 117 139 139 154 108 82 88 108 135 147 156 154 153 146 145 145 141 139 131 129 132 131 125 125 123 124 120 123 130 129 131 122 116 115 112 116 107 97 99 100 104
151 192 249 216 216 158 217 58 115 127 132 146 125 74 76 147 149 155 153 154 151 149 146 148 144 141 135 134 132 130 125 122 125 124 122 120 121 123 121 118 126 126 113 119 115 101 101 98 90
167 180 214 232 232 223 217 200 187 158 127 136 117 112 102 133 159 151 153 154 153 150 148 148 146 145 138 133 137 133 128 125 122 122 122 121 117 115 112 110 116 120 111 116 121 112 103 99 101
165 213 212 206 229 224 217 149 185 156 142 140 111 121 122 160 154 153 154 155 157 151 152 151 149 148 144 138 141 136 130 127 124 121 118 116 116 116 115 110 107 105 110 110 120 120 106 112 106
177 190 252 271 206 191 163 153 159 149 150 153 144 115 138 154 157 154 155 159 159 158 155 154 153 155 150 147 145 144 137 131 130 125 123 118 117 112 109 106 100 97 102 108 119 116 101 103 106
193 236 242 227 217 206 153 155 143 140 128 141 153 157 166 167 159 157 157 160 162 163 161 159 158 159 152 151 145 144 143 138 136 134 128 123 119 115 108 104 96 91 90 101 113 112 104 102 96
183 235 238 254 203 146 152 152 149 120 137 146 178 164 165 160 159 158 159 161 163 167 166 165 162 160 156 152 149 147 146 144 142 138 130 124 117 115 114 103 101 95 92 98 101 104 103 98 91
206 246 233 258 145 197 167 170 141 131 145 124 135 134 155 159 162 163 165 165 168 170 171 171 167 163 160 156 153 152 149 149 144 140 136 130 127 120 116 115 111 103 102 95 99 101 98 98 95
199 241 234 306 185 143 136 142 138 145 186 186 165 153 158 163 166 168 169 171 171 172 173 175 171 167 165 163 158 155 151 146 145 141 139 135 131 130 127 127 125 114 114 109 96 98 98 97 87
233 245 255 324 160 174 178 161 173 182 136 186 172 162 162 169 171 171 173 173 173 175 175 176 174 170 168 163 160 156 151 146 144 145 143 140 134 133 139 140 134 124 132 117 106 98 83 86 98
226 262 261 244 244 285 184 205 162 205 156 151 160 162 168 171 173 175 175 176 176 180 178 178 176 172 170 165 162 160 156 158 159 162 156 151 139 142 147 147 137 124 137 136 115 108 99 66 82
222 240 261 282 242 281 264 255 190 142 151 150 161 167 171 176 176 177 180 180 182 182 181 180 177 174 173 169 167 164 162 164 163 150 150 141 148 146 147 158 150 142 141 155 125 126 105 89 99
233 321 281 247 238 243 233 222 215 158 157 156 168 171 173 179 182 187 185 185 184 183 181 183 179 178 177 172 170 169 163 158 161 159 156 156 145 132 157 162 167 161 151 149 159 136 136 121 116
211 218 253 181 196 223 190 237 150 160 160 166 173 175 176 182 188 192 191 190 189 186 186 184 183 182 181 178 175 173 167 157 163 160 152 146 145 155 166 168 163 174 157 130 156 164 160 170 133
193 216 217 249 192 192 201 261 152 168 170 170 177 179 181 186 192 197 197 195 194 191 190 189 188 186 184 183 180 180 178 175 178 184 181 164 158 158 166 170 171 164 170 155 132 129 147 151 136
208 215 219 211 189 197 202 227 157 176 180 181 182 183 186 190 196 197 199 199 199 199 197 195 192 190 190 188 187 186 190 192 196 199 188 176 164 168 178 173 178 176 174 169 171 163 157 163 124
259 235 233 205 204 212 224 232 191 184 189 185 189 191 192 196 196 199 201 203 204 206 204 202 199 195 194 192 193 194 197 197 194 189 186 173 166 175 175 172 181 174 182 170 173 184 174 179 167
244 277 235 251 218 218 215 233 203 189 199 193 192 196 197 195 196 201 203 204 206 209 209 206 204 200 197 197 199 201 201 201 198 201 205 195 188 183 176 173 177 188 192 199 193 195 186 186 194
231 236 233 255 258 242 230 245 214 208 212 203 206 208 206 202 197 200 204 205 205 209 212 210 207 206 203 203 205 209 208 209 205 201 203 208 204 201 196 193 196 200 202 205 193 195 209 205 200
228 227 237 261 293 232 211 243 206 209 204 207 206 207 209 207 207 206 203 206 208 210 214 214 212 210 208 207 209 214 213 213 210 210 210 214 213 214 212 215 219 227 226 201 199 200 200 195 186
232 231 232 242 255 279 229 241 233 202 209 213 211 211 211 210 208 208 209 210 209 209 216 215 213 212 210 211 210 213 217 220 222 220 220 227 231 229 224 226 228 242 233 204 221 231 224 209 215
222 221 227 234 236 246 235 233 231 205 211 216 213 215 214 211 211 211 212 209 210 209 213 217 214 215 214 213 214 215 220 223 225 225 227 231 236 238 239 236 230 233 238 227 229 231 244 231 231
208 195 198 212 212 235 228 232 233 213 213 212 202 212 215 211 209 208 207 206 207 206 212 220 217 218 216 216 217 219 222 228 233 235 234 234 238 240 242 241 236 238 240 237 230 232 239 247 230
202 205 200 207 217 230 217 234 221 228 240 230 229 219 214 210 212 211 208 208 209 212 216 221 219 217 217 219 221 222 227 230 234 238 239 238 241 243 245 246 249 241 233 234 235 239 243 248 239
191 211 215 265 248 251 217 236 266 230 238 234 234 222 208 208 209 210 209 209 211 213 216 220 219 217 220 220 221 223 226 231 234 236 237 239 242 246 243 243 242 230 227 230 236 242 245 251 246
230 204 205 220 236 234 207 218 229 205 222 224 226 218 215 211 211 212 210 208 212 215 217 220 221 220 220 222 221 224 227 229 231 234 236 238 239 240 239 232 230 227 225 230 238 244 247 250 250
201 206 212 214 227 234 245 226 225 223 209 217 222 222 221 214 213 212 213 211 217 214 216 219 219 220 222 223 224 223 226 229 231 233 234 236 237 238 238 234 232 231 228 229 235 242 248 251 252
328 253 212 220 217 230 258 243 226 215 211 216 221 222 222 218 214 213 211 209 207 207 213 220 221 219 220 223 224 224 226 230 233 234 235 234 235 235 237 236 233 232 230 230 235 240 246 248 247